{"data":{"norad_id":49443,"intl_designator":"2021-104AM","name":"STARLINK-3136","alt_names":[],"object_type":"PAYLOAD","status":"ACTIVE","operator":null,"country":"US","launch_date":"2021-11-13","launch_site_code":"AFETR","launch_vehicle":null,"mission":null,"orbit_class":"UNKNOWN","rcs_meters":null,"size_class":null,"mass_kg":null,"dimensions":null,"purposes":["comms"],"wikipedia_slug":null,"has_3d_model":false,"image_url":null,"decayed_at":null,"tle_current":{"epoch":"2026-05-25T05:18:30.658752Z","epoch_age_seconds":53034,"freshness":"FRESH","line1":"1 49443U 21104AM  26145.22118818  .00016002  00000+0  98727-3 0  9995","line2":"2 49443  53.2144 225.3646 0001789  23.8994 336.2081 15.10079326250478","mean_motion":15.10079326,"eccentricity":0.0001789,"inclination_deg":53.2144,"raan_deg":225.3646,"arg_perigee_deg":23.8994,"mean_anomaly_deg":336.2081,"bstar":0.00098727,"rev_number":25047,"period_min":95.35922883034,"perigee_km":534.72092461775,"apogee_km":537.19478775729,"semimajor_km":6914.0948561875,"source":"CELESTRAK","updated_at":"2026-05-25T13:38:16.802072Z"}}}